Stations météo

réclame
Mon MeteoGroup
Aguilas, Espagne (8432): Température de l'air & dewpoint: 12.01.2020 00:00:00 - 18.01.2020 00:00:00 (CET)Aguilas, Espagne (8432): Vitesse du vent & gusts: 12.01.2020 00:00:00 - 18.01.2020 00:00:00 (CET)Aguilas, Espagne (8432): Direction du vent: 12.01.2020 00:00:00 - 18.01.2020 00:00:00 (CET)Aguilas, Espagne (8432): reduced air pressure: 12.01.2020 00:00:00 - 18.01.2020 00:00:00 (CET)Aguilas, Espagne (8432): visibility: 12.01.2020 00:00:00 - 18.01.2020 00:00:00 (CET)Aguilas, Espagne (8432): Ensoleillement: 12.01.2020 00:00:00 - 18.01.2020 00:00:00 (CET)Aguilas, Espagne (8432): Quantités de précipitations: 12.01.2020 00:00:00 - 18.01.2020 00:00:00 (CET)
Date & Time tt [°C] td [°C] ff [km/h] ff [knt] fx [km/h] fx [knt] dd ppp [hPa] vv [km] sd [min] rr [mm]
18.01.2020 00:00:00 - - - - - - - - - - -
17.01.2020 23:00:00 11,6 7,0 1 1 6 4 NNE 1032,1 20 0 0,0
17.01.2020 22:00:00 12,3 8,3 3 1 7 4 NE 1032,1 16 0 0,0
17.01.2020 21:00:00 12,7 8,1 4 2 8 5 NE 1031,7 17 0 0,0
17.01.2020 20:00:00 13,2 9,4 3 1 10 6 ENE 1031,4 10 0 0,0
17.01.2020 19:00:00 14,2 10,6 2 1 6 4 ENE 1031,1 8 0 -
17.01.2020 18:00:00 15,6 10,8 4 2 6 4 SSW 1030,0 12 25 0,0
17.01.2020 17:00:00 17,0 10,9 4 2 14 8 SSW 1029,8 19 60 0,0
17.01.2020 16:00:00 17,7 10,8 6 3 18 10 SSW 1029,6 20 60 0,0
17.01.2020 15:00:00 18,2 10,0 7 4 17 9 S 1029,6 20 60 0,0
17.01.2020 14:00:00 18,6 2,9 6 3 16 9 SSW 1030,1 20 60 0,0
17.01.2020 13:00:00 17,9 4,5 6 3 16 9 S 1030,9 20 60 -
17.01.2020 12:00:00 17,9 6,7 6 4 14 7 SSE 1031,9 20 60 0,0
17.01.2020 11:00:00 16,1 6,8 6 4 14 8 SE 1031,6 20 60 0,0
17.01.2020 10:00:00 14,6 6,4 6 3 16 8 ESE 1030,9 20 60 0,0
17.01.2020 09:00:00 10,3 3,4 5 3 10 5 ENE 1030,1 20 18 0,0
17.01.2020 08:00:00 8,5 1,5 3 2 11 6 E 1030,0 18 0 0,0
17.01.2020 07:00:00 8,4 1,3 4 2 11 6 NE 1029,5 20 0 -
17.01.2020 06:00:00 9,0 1,5 7 4 11 6 ENE 1029,1 20 0 0,0
17.01.2020 05:00:00 8,9 2,3 8 4 14 8 N 1029,1 20 0 0,0
17.01.2020 04:00:00 8,0 2,7 5 3 15 8 N 1029,3 20 0 0,0
17.01.2020 03:00:00 7,8 3,4 3 2 9 5 NNE 1029,0 20 0 0,0
17.01.2020 02:00:00 7,7 3,0 4 2 11 6 NNW 1029,1 20 0 0,0
17.01.2020 01:00:00 8,4 3,2 7 4 10 6 NNW 1029,1 20 0 -
17.01.2020 00:00:00 8,7 3,6 3 1 10 5 NNW 1029,6 20 0 0,0
16.01.2020 23:00:00 10,3 5,1 6 3 11 6 NNE 1029,2 20 0 0,0
16.01.2020 22:00:00 10,6 4,6 3 1 11 6 ENE 1028,9 20 0 0,0
16.01.2020 21:00:00 11,4 5,0 4 2 10 5 NE 1028,9 20 0 0,0
16.01.2020 20:00:00 11,8 3,6 5 3 9 5 NE 1028,8 20 0 0,0
16.01.2020 19:00:00 12,7 5,1 2 1 5 3 NW 1028,3 18 0 -
16.01.2020 18:00:00 16,3 3,9 2 1 5 3 SW 1027,7 20 42 0,0
16.01.2020 17:00:00 17,7 2,1 4 2 11 6 WSW 1027,4 20 60 0,0
16.01.2020 16:00:00 17,4 5,6 6 4 14 7 SSW 1027,3 20 60 0,0
16.01.2020 15:00:00 16,9 7,8 9 5 13 7 SSW 1027,6 20 60 0,0
16.01.2020 14:00:00 17,1 8,0 7 4 15 8 S 1027,8 20 60 0,0
16.01.2020 13:00:00 16,6 7,3 9 5 16 8 SE 1028,6 20 60 -
16.01.2020 12:00:00 17,4 7,7 5 3 10 5 S 1029,4 20 60 0,0
16.01.2020 11:00:00 16,7 8,9 4 2 7 4 S 1029,7 20 60 0,0
16.01.2020 10:00:00 13,5 5,5 4 2 10 6 NW 1029,3 20 60 0,0
16.01.2020 09:00:00 10,5 2,7 6 4 11 6 NNE 1028,9 20 16 0,0
16.01.2020 08:00:00 7,9 0,9 3 2 9 5 NE 1028,5 20 0 0,0
16.01.2020 07:00:00 8,9 0,6 5 3 10 5 NE 1028,0 20 0 -
16.01.2020 06:00:00 8,2 1,3 3 1 13 7 ENE 1027,7 20 0 0,0
16.01.2020 05:00:00 9,2 3,9 6 4 10 5 NNE 1028,0 20 0 0,0
16.01.2020 04:00:00 8,7 3,4 4 2 10 5 NNE 1028,1 20 0 0,0
16.01.2020 03:00:00 8,6 3,6 3 2 10 5 NNE 1028,1 20 0 0,0
16.01.2020 02:00:00 7,9 2,3 3 2 8 4 E 1028,0 20 0 0,0
16.01.2020 01:00:00 9,6 2,5 5 3 9 5 NE 1028,4 20 0 -
16.01.2020 00:00:00 8,7 2,5 3 1 8 5 NNE 1028,6 20 0 0,0
15.01.2020 23:00:00 9,1 3,0 2 1 10 5 NNE 1028,6 20 0 0,0
15.01.2020 22:00:00 8,7 1,9 5 3 8 4 NNW 1028,4 20 0 0,0
15.01.2020 21:00:00 9,1 1,9 2 1 8 5 N 1028,5 20 0 0,0
15.01.2020 20:00:00 9,6 3,0 3 2 8 4 NNW 1028,4 20 0 0,0
15.01.2020 19:00:00 11,9 4,8 4 2 8 5 N 1028,2 20 0 -
15.01.2020 18:00:00 14,6 6,7 3 1 9 5 NW 1027,7 20 41 0,0
15.01.2020 17:00:00 15,9 5,1 5 3 11 6 WSW 1027,2 20 48 0,0
15.01.2020 16:00:00 16,6 5,3 6 3 13 7 SW 1026,9 20 60 0,0
15.01.2020 15:00:00 16,4 5,3 6 4 15 8 S 1026,8 20 60 0,0
15.01.2020 14:00:00 17,0 4,6 8 4 13 7 SSW 1026,8 20 60 0,0
15.01.2020 13:00:00 17,0 5,9 5 3 9 5 S 1027,3 20 57 -
15.01.2020 12:00:00 16,0 6,7 5 3 8 5 S 1027,9 20 59 0,0
15.01.2020 11:00:00 15,5 7,6 3 2 5 3 S 1028,0 20 60 0,0
15.01.2020 10:00:00 13,4 4,5 1 1 7 4 SSE 1027,1 16 53 0,0
15.01.2020 09:00:00 9,0 3,0 3 1 13 7 NNW 1026,5 14 0 0,0
15.01.2020 08:00:00 9,0 2,5 4 2 14 8 NNE 1025,9 20 0 0,0
15.01.2020 07:00:00 8,8 2,9 8 4 11 6 NE 1025,0 20 0 -
15.01.2020 06:00:00 7,3 1,9 2 1 8 5 ENE 1024,4 20 0 0,0
15.01.2020 05:00:00 8,9 2,1 5 3 12 6 NNE 1024,0 20 0 0,0
15.01.2020 04:00:00 9,1 3,2 9 5 11 6 NNE 1024,2 20 0 0,0
15.01.2020 03:00:00 7,6 3,8 2 1 9 5 NNW 1024,3 20 0 0,0
15.01.2020 02:00:00 8,1 4,3 3 2 10 5 NE 1024,0 20 0 0,0
15.01.2020 01:00:00 7,7 4,1 2 1 6 4 NE 1024,3 20 0 -
15.01.2020 00:00:00 8,2 3,9 0 0 7 4 N 1024,2 20 0 0,0
14.01.2020 23:00:00 9,4 4,5 6 3 10 6 NNE 1024,1 20 0 0,0
14.01.2020 22:00:00 9,1 3,8 2 1 9 5 NNE 1023,7 20 0 0,0
14.01.2020 21:00:00 9,3 4,3 3 2 4 2 NW 1023,5 20 0 0,0
14.01.2020 20:00:00 10,8 5,0 1 1 9 5 SSE 1023,4 20 0 0,0
14.01.2020 19:00:00 12,2 6,2 1 1 9 5 N 1022,9 20 0 -
14.01.2020 18:00:00 13,4 7,6 5 3 10 6 NE 1022,3 20 3 0,0
14.01.2020 17:00:00 14,2 8,0 3 2 14 7 NW 1022,4 20 43 0,0
14.01.2020 16:00:00 15,5 6,2 8 5 18 10 SSW 1022,3 20 60 0,0
14.01.2020 15:00:00 16,1 1,5 8 5 17 9 SSW 1022,2 20 60 0,0
14.01.2020 14:00:00 16,1 3,6 9 5 14 8 S 1022,6 20 60 0,0
14.01.2020 13:00:00 16,2 3,9 6 3 13 7 S 1023,4 20 60 -
14.01.2020 12:00:00 15,6 5,0 8 4 11 6 S 1024,5 20 60 0,0
14.01.2020 11:00:00 15,0 6,1 4 2 9 5 W 1025,0 20 60 0,0
14.01.2020 10:00:00 12,0 7,1 0 0 8 5 N 1024,7 20 54 0,0
14.01.2020 09:00:00 6,7 3,6 4 2 6 3 NW 1024,4 20 12 0,0
14.01.2020 08:00:00 7,1 3,6 3 2 8 5 NNE 1024,1 20 0 0,0
14.01.2020 07:00:00 7,7 4,3 6 3 11 6 NNE 1023,5 20 0 -
14.01.2020 06:00:00 7,3 3,9 3 1 11 6 NNE 1022,9 20 0 0,0
14.01.2020 05:00:00 8,0 4,3 7 4 13 7 NE 1023,0 20 0 0,0
14.01.2020 04:00:00 8,0 4,3 1 1 13 7 W 1023,1 20 0 0,0
14.01.2020 03:00:00 7,2 4,1 2 1 10 5 NNE 1023,0 20 0 0,0
14.01.2020 02:00:00 6,4 3,4 2 1 5 3 NNE 1023,0 20 0 0,0
14.01.2020 01:00:00 6,9 3,4 1 1 8 4 N 1023,4 20 0 -
14.01.2020 00:00:00 7,5 3,9 5 3 8 5 NNW 1024,2 20 0 0,0
13.01.2020 23:00:00 8,1 4,3 4 2 8 4 N 1024,4 20 0 0,0
13.01.2020 22:00:00 9,0 5,0 1 1 9 5 NNW 1024,2 20 0 0,0
13.01.2020 21:00:00 11,3 6,4 4 2 13 7 NE 1024,5 20 0 0,0
13.01.2020 20:00:00 12,1 6,8 7 4 16 9 NE 1024,8 19 0 0,0
13.01.2020 19:00:00 13,4 7,4 8 4 24 13 SW 1024,6 20 0 -
13.01.2020 18:00:00 13,7 7,0 10 6 26 14 SW 1024,4 20 23 0,0
13.01.2020 17:00:00 14,7 7,3 10 5 27 15 SSW 1024,6 20 60 0,0
13.01.2020 16:00:00 15,1 7,1 11 6 24 13 SW 1025,0 20 60 0,0
13.01.2020 15:00:00 16,0 7,3 11 6 22 12 SSW 1025,2 20 60 0,0
13.01.2020 14:00:00 15,0 7,0 11 6 19 11 SSW 1025,8 20 60 0,0
13.01.2020 13:00:00 15,1 6,1 11 6 22 12 SSW 1027,2 20 60 -
13.01.2020 12:00:00 14,8 5,8 6 4 16 8 S 1028,2 20 60 0,0
13.01.2020 11:00:00 14,1 5,8 4 2 10 6 NNW 1028,6 20 50 0,0
13.01.2020 10:00:00 11,7 7,4 1 1 6 3 NW 1028,6 20 53 0,0
13.01.2020 09:00:00 6,9 4,3 1 1 8 5 ENE 1028,5 17 13 0,0
13.01.2020 08:00:00 5,5 2,9 3 1 7 4 NNE 1028,3 20 0 0,0
13.01.2020 07:00:00 5,5 2,5 3 2 10 5 NNE 1028,1 20 0 -
13.01.2020 06:00:00 5,4 2,3 3 1 8 4 NE 1027,9 20 0 0,0
13.01.2020 05:00:00 5,9 2,3 3 2 8 5 N 1028,3 20 0 0,0
13.01.2020 04:00:00 5,6 1,5 2 1 7 4 NNE 1028,7 20 0 0,0
13.01.2020 03:00:00 5,9 1,7 2 1 7 4 ENE 1029,3 20 0 0,0
13.01.2020 02:00:00 6,3 1,7 3 1 8 5 NE 1029,5 20 0 0,0
13.01.2020 01:00:00 6,6 1,3 0 0 6 3 N 1030,0 20 0 -
13.01.2020 00:00:00 8,1 1,7 4 2 10 6 N 1030,6 20 0 0,0
12.01.2020 23:00:00 8,4 1,9 5 3 8 5 N 1030,6 20 0 0,0
12.01.2020 22:00:00 9,6 2,3 4 2 11 6 NE 1030,6 20 0 0,0
12.01.2020 21:00:00 10,3 3,0 5 3 11 6 NE 1030,1 20 0 0,0
12.01.2020 20:00:00 10,4 5,8 3 2 11 6 ENE 1029,7 20 0 0,0
12.01.2020 19:00:00 12,3 7,4 5 3 8 5 N 1029,6 20 0 -
12.01.2020 18:00:00 14,1 7,8 5 3 9 5 W 1029,1 20 36 0,0
12.01.2020 17:00:00 15,6 7,8 6 3 14 8 SSW 1028,9 20 60 0,0
12.01.2020 16:00:00 16,1 8,1 7 4 14 8 SSW 1028,7 20 60 0,0
12.01.2020 15:00:00 16,2 7,4 9 5 16 9 S 1028,7 20 60 0,0
12.01.2020 14:00:00 16,3 5,6 9 5 18 10 S 1029,0 20 60 0,0
12.01.2020 13:00:00 16,3 1,9 9 5 18 10 S 1029,7 20 60 -
12.01.2020 12:00:00 16,1 1,7 8 4 15 8 S 1030,7 20 60 0,0
12.01.2020 11:00:00 16,3 0,9 4 2 10 6 SSW 1031,1 20 60 0,0
12.01.2020 10:00:00 11,7 2,7 2 1 10 5 WNW 1030,9 20 51 0,0
12.01.2020 09:00:00 6,4 3,6 2 1 5 3 NW 1030,8 20 13 0,0
12.01.2020 08:00:00 6,1 2,9 4 2 8 4 NNE 1030,7 20 0 0,0
12.01.2020 07:00:00 6,1 3,0 3 2 10 5 NNE 1030,7 20 0 -
12.01.2020 06:00:00 6,2 3,4 5 3 8 4 NNW 1030,6 18 0 0,0
12.01.2020 05:00:00 6,6 3,8 5 3 8 5 N 1030,8 20 0 0,0
12.01.2020 04:00:00 6,7 3,6 1 1 8 5 NNW 1031,1 20 0 0,0
12.01.2020 03:00:00 6,8 3,2 1 1 6 4 WNW 1031,3 20 0 0,0
12.01.2020 02:00:00 8,2 4,3 3 2 8 4 NNE 1031,0 20 0 0,0
12.01.2020 01:00:00 7,9 3,6 3 2 9 5 N 1031,2 20 0 -
12.01.2020 00:00:00 8,3 2,9 6 3 9 5 NNW 1031,6 20 0 0,0

tt = Température de l'air
td = dewpoint
ff = Vitesse du vent
fx = gusts
dd = Direction du vent
ppp = reduced air pressure
vv = visibility
sd = Ensoleillement
rr = Quantités de précipitations

stations d'obs. à proximité